Date String (YYYY-MM-DD hh:mm:ss) UTC,Instrument flags,Ambient pressure (hPa),Sample flow (lpm),Bypass flow (lpm),Sample temperature (°C),Ambient temperature (°C),ASC tube jacket temperature (°C),LED temperature (°C),Box temperature (°C),Sample RH (%),Span deviation,Mass concentration (μg/m³),Mass concentration (μg/m³),Mass concentration (μg/m³)
DateTimeUTC,F1_M11,P_M11,Q1_M11,Q2_M11,T1_M11,T2_M11,T3_M11,T4_M11,T5_M11,U1_M11,ZSPAN_M11,X0_M11,X2_M11,X1_M11
2021-08-30 13:00:00,,0826.7,5.00,0.00,30.4,29.4,00.0,39.5,32.1,22.4,0001.5,0027.76,0020.36,0019.09
2021-08-30 13:01:00,,0826.7,4.99,0.00,30.4,29.5,00.0,39.5,32.1,21.2,0001.2,0027.97,0020.61,0019.34
2021-08-30 13:02:00,,0826.7,5.01,0.00,30.4,29.5,00.0,39.5,32.2,20.5,0001.1,0028.02,0020.93,0019.69
2021-08-30 13:03:00,,0826.7,5.00,0.00,30.4,29.5,00.0,39.5,32.2,19.8,0001.2,0027.69,0021.24,0020.05
2021-08-30 13:04:00,,0826.7,5.00,0.00,30.4,29.5,00.0,39.5,32.2,19.1,0001.1,0028.34,0021.80,0020.58
2021-08-30 13:05:00,,0826.7,4.99,0.00,30.4,29.5,00.0,39.5,32.2,18.9,0001.2,0028.62,0022.30,0021.09
2021-08-30 13:06:00,,0826.7,5.00,0.00,30.4,29.5,00.0,39.5,32.2,18.9,0001.5,0029.29,0022.81,0021.68
2021-08-30 13:07:00,,0826.7,5.00,0.00,30.5,29.5,00.0,39.5,32.2,19.3,0001.5,0029.66,0023.23,0022.14
2021-08-30 13:08:00,,0826.7,5.00,0.00,30.5,29.5,00.0,39.6,32.2,19.6,0001.7,0029.33,0023.61,0022.54
2021-08-30 13:09:00,,0826.7,5.01,0.00,30.5,29.5,00.0,39.6,32.3,20.0,0002.1,0029.74,0023.80,0022.78
2021-08-30 13:10:00,,0826.7,4.99,0.00,30.5,29.5,00.0,39.6,32.3,20.1,0002.2,0029.96,0024.00,0022.99
2021-08-30 13:11:00,,0826.7,5.01,0.00,30.5,29.6,00.0,39.6,32.3,20.2,0002.3,0030.26,0024.23,0023.22
2021-08-30 13:12:00,,0826.7,4.99,0.00,30.5,29.6,00.0,39.6,32.3,20.6,0002.3,0030.54,0024.33,0023.33
2021-08-30 13:13:00,,0826.8,5.01,0.00,30.5,29.6,00.0,39.6,32.3,21.2,0002.3,0030.44,0024.19,0023.15
2021-08-30 13:14:00,,0826.8,5.00,0.00,30.5,29.6,00.0,39.6,32.3,21.6,0002.1,0030.43,0023.95,0022.89
2021-08-30 13:15:00,,0826.8,5.00,0.00,30.5,29.6,00.0,39.6,32.3,21.2,0002.1,0030.12,0023.53,0022.51
2021-08-30 13:16:00,,0826.8,5.00,0.00,30.6,29.7,00.0,39.6,32.3,20.8,0002.1,0030.35,0023.25,0022.23
2021-08-30 13:17:00,,0826.8,5.01,0.00,30.6,29.7,00.0,39.7,32.3,20.6,0001.9,0030.16,0023.01,0021.97
2021-08-30 13:18:00,,0826.8,4.99,0.00,30.6,29.7,00.0,39.7,32.3,20.6,0002.0,0030.32,0022.75,0021.71
2021-08-30 13:19:00,,0826.8,4.99,0.00,30.6,29.7,00.0,39.7,32.3,20.5,0001.9,0029.94,0022.47,0021.47
2021-08-30 13:20:00,,0826.8,5.01,0.00,30.6,29.7,00.0,39.7,32.4,20.5,0001.7,0029.70,0022.36,0021.35
2021-08-30 13:21:00,,0826.8,4.99,0.00,30.6,29.1,00.0,39.7,32.1,20.7,0001.7,0029.43,0022.21,0021.20
2021-08-30 13:22:00,,0826.8,5.01,0.00,30.4,27.2,00.0,39.7,31.7,21.1,0001.7,0029.59,0021.98,0021.03
2021-08-30 13:23:00,,0826.7,5.00,0.00,30.3,26.7,00.0,39.6,31.6,21.0,0001.7,0029.33,0021.88,0020.93
2021-08-30 13:24:00,,0826.7,4.99,0.00,30.2,27.0,00.0,39.6,31.6,22.0,0001.8,0029.41,0021.84,0020.86
2021-08-30 13:25:00,,0826.7,5.00,0.00,30.1,27.4,00.0,39.5,31.6,22.1,0001.9,0029.42,0021.83,0020.82
2021-08-30 13:26:00,,0826.7,5.00,0.00,30.1,27.8,00.0,39.5,31.6,21.8,0002.1,0029.35,0021.92,0020.86
2021-08-30 13:27:00,,0826.7,5.01,0.00,30.1,28.1,00.0,39.4,31.7,22.5,0002.1,0029.22,0021.83,0020.75
2021-08-30 13:28:00,,0826.7,4.99,0.00,30.1,28.3,00.0,39.4,31.8,22.3,0001.9,0028.93,0021.64,0020.54
2021-08-30 13:29:00,,0826.7,4.99,0.00,30.1,28.5,00.0,39.4,31.8,22.5,0001.9,0028.30,0021.54,0020.42
2021-08-30 13:30:00,,0826.9,5.01,0.00,30.1,28.6,00.0,39.4,31.8,22.8,0001.8,0028.15,0021.39,0020.23
2021-08-30 13:31:00,,0826.7,4.99,0.00,30.2,28.7,00.0,39.4,31.9,23.0,0001.7,0027.95,0021.21,0020.03
2021-08-30 13:32:00,,0826.7,4.99,0.00,30.2,28.8,00.0,39.4,31.9,24.9,0001.6,0027.61,0020.83,0019.67
2021-08-30 13:33:00,,0826.7,5.00,0.00,30.2,28.9,00.0,39.4,31.9,25.0,0001.7,0026.78,0020.47,0019.25
2021-08-30 13:34:00,,0826.7,5.01,0.00,30.2,29.0,00.0,39.4,31.9,24.0,0001.8,0026.19,0020.10,0018.86
2021-08-30 13:35:00,,0826.7,4.99,0.00,30.2,29.1,00.0,39.4,32.0,23.3,0001.8,0026.62,0019.92,0018.70
2021-08-30 13:36:00,,0826.7,5.00,0.00,30.2,29.1,00.0,39.4,32.0,23.1,0001.7,0026.60,0019.84,0018.64
2021-08-30 13:37:00,,0826.7,5.00,0.00,30.3,29.1,00.0,39.4,32.0,23.5,0001.6,0026.41,0019.63,0018.49
2021-08-30 13:38:00,,0826.7,5.00,0.00,30.3,29.2,00.0,39.4,32.0,23.3,0001.6,0025.82,0019.50,0018.37
2021-08-30 13:39:00,,0826.7,5.01,0.00,30.3,29.2,00.0,39.4,32.0,22.7,0001.6,0025.82,0019.45,0018.35
2021-08-30 13:40:00,,0826.7,4.99,0.00,30.3,29.2,00.0,39.4,32.0,22.7,0001.5,0026.60,0019.39,0018.33
2021-08-30 13:41:00,,0826.7,5.01,0.00,30.3,29.3,00.0,39.4,32.1,22.3,0001.5,0026.67,0019.43,0018.37
2021-08-30 13:42:00,,0826.7,5.00,0.00,30.3,29.3,00.0,39.4,32.1,22.2,0001.7,0026.63,0019.45,0018.41
2021-08-30 13:43:00,,0826.7,4.98,0.00,30.4,29.4,00.0,39.4,32.1,21.8,0001.9,0026.95,0019.76,0018.67
2021-08-30 13:44:00,,0826.7,5.01,0.00,30.4,29.4,00.0,39.4,32.1,21.5,0002.1,0027.26,0020.06,0018.99
2021-08-30 13:45:00,,0826.7,5.00,0.00,30.4,29.4,00.0,39.4,32.1,21.6,0002.1,0027.66,0020.44,0019.38
2021-08-30 13:46:00,,0826.7,5.00,0.00,30.4,29.5,00.0,39.5,32.2,21.3,0002.1,0027.55,0020.68,0019.64
2021-08-30 13:47:00,,0826.7,5.00,0.00,30.4,29.5,00.0,39.5,32.2,20.8,0002.0,0027.32,0020.90,0019.86
2021-08-30 13:48:00,,0826.7,4.99,0.00,30.4,29.5,00.0,39.5,32.2,20.1,0002.1,0028.17,0021.27,0020.19
2021-08-30 13:49:00,,0826.7,4.99,0.00,30.5,29.6,00.0,39.5,32.2,20.2,0002.0,0028.78,0021.61,0020.54
2021-08-30 13:50:00,,0826.7,5.01,0.00,30.5,29.6,00.0,39.5,32.3,20.3,0002.0,0029.15,0021.93,0020.83
2021-08-30 13:51:00,,0826.7,4.99,0.00,30.5,29.6,00.0,39.5,32.3,19.3,0002.0,0028.91,0022.28,0021.14
2021-08-30 13:52:00,,0826.7,4.99,0.00,30.5,29.7,00.0,39.5,32.3,19.5,0002.0,0029.51,0022.61,0021.47
2021-08-30 13:53:00,,0826.7,5.00,0.00,30.5,29.7,00.0,39.6,32.3,20.7,0002.0,0029.64,0022.83,0021.71
2021-08-30 13:54:00,,0826.6,5.00,0.00,30.6,29.7,00.0,39.6,32.3,21.2,0001.9,0030.31,0022.90,0021.82
2021-08-30 13:55:00,,0826.7,5.00,0.00,30.6,29.7,00.0,39.6,32.3,21.8,0001.6,0030.86,0022.93,0021.82
2021-08-30 13:56:00,,0826.7,5.01,0.00,30.5,28.6,00.0,39.6,32.1,22.1,0001.3,0031.23,0022.94,0021.76
2021-08-30 13:57:00,,0826.7,5.00,0.00,30.4,26.7,00.0,39.6,31.6,22.9,0001.4,0031.37,0022.81,0021.63
2021-08-30 13:58:00,,0826.6,4.99,0.00,30.2,26.3,00.0,39.5,31.4,24.5,0001.4,0031.38,0022.55,0021.39
2021-08-30 13:59:00,,0826.6,5.01,0.00,30.1,26.6,00.0,39.5,31.5,25.7,0001.2,0031.05,0022.08,0020.88
